Showing default

SKYBEE-A01, 62671

Orbit data source: Space-Track

SKYBEE-A01, 62671 is a payload satellite owned by ConstellR (DE) in SSO that was launched on Tue, 14 Jan 2025 UTC via an FALCON 9 launch vehicle from the Air Force Western Test Range (AFWTR). Payload-class satellites include a variety of spacecraft equipped with specific instruments for various scientific and technological missions. These include communications satellites like Starlink; space stations such as the ISS; scientific satellites like the Hubble; Earth observation satellites from companies like Planet Labs, Umbra, and HawkEye 360; GPS; miniature CubeSats for education and research; and military/defense satellites.

Loading next visibility...
Identifier
62671, 2025-009BQ
Orbit
SSO
Country
Flag of DEDE / GER
Related business
Manufacturer
NanoAvionics
Mission
Operational Commercial Imaging
Bus & Motor
CUBESAT 16U MP42, Unknown motor
Mass
110 kg wet, 110 kg dry
Launch date (UTC)
2025-01-14 (1 year ago)
Launch vehicle
FALCON 9
Launch site
Air Force Western Test Range (AFWTR)
Object type
Payload
Rocket body
Debris
Shape & HBR
Box + 2 Pan, 2.6 m
Radar Cross Section
0.146 m², Medium (>0.1 m² and < 1m²)

Expand to show TLE details & history
Last TLE update: 4 hours ago

TLE from 4 hours ago
0 SKYBEE-A01
1 62671U 25009BQ  26073.59863005  .00003658  00000-0  17048-3 0  9997
2 62671  97.4034 153.8720 0004020 317.6260  42.4664 15.20504536121964
Epoch: 2026-03-14T14:22Z
TLE epoch observation values (Epoch: 2026-03-14T14:22:01.636Z)
Latitude
-0.00006°
Longitude
126.14768°
Altitude
505.368 km
Speed
7.613 km/s
True Right ascension
10h 15m 29s
True Declination
0° 00' 00"
Sunlit
Object was in full shadow at epoch
Visualization orbit readout
Latitude
Unknown
Longitude
Unknown
Altitude
Unknown
Speed
Unknown
Apparent Right ascension
Unknown
Apparent Declination
Unknown
Sunlit
N/A
Visualization observer readout
Local Sidereal Time
23:02:16
Azimuth
Unknown
Elevation
Unknown
Doppler factor
Unknown
Orbital elements
Apogee altitude
504.048 km
Perigee altitude
498.517 km
Semi-major axis
6,879.42 km
Eccentricity
0.0004
Inclination
97.4034°
RAAN
153.872°
Arg. of periapsis
317.626°
True anomaly
42.49751°
Mean anomaly
42.4664°
Eccentric anomaly
42.48196°
Mean motion
3.80378 °/min
Orbital period
94.64 mins
BSTAR
0.00017048
Loading maneuver chart data...
Computing Atmospheric mass density...
Loading historical data...
Loading historical data...
Loading historical data...
Loading historical data...
Loading historical data...
Loading historical data...
Loading historical data...

Documentation

Showing up to 5 results
|